Preview of NWS' New Version of Forecast
This preview is not operational and should not be used for support decisions.

Regional Weather Roundup (RWR)

Issued by National Weather Service (NWS)

                            
000
ASUS43 KLSX 170107
RWRMO 

WEATHER SUMMARY FOR MISSOURI
NATIONAL WEATHER SERVICE SPRINGFIELD MO
700 PM CST SAT FEB 16 2019

NOTE: "FAIR" INDICATES FEW OR NO CLOUDS BELOW 12,000 FEET WITH NO
       SIGNIFICANT WEATHER AND/OR OBSTRUCTIONS TO VISIBILITY.
       CURRENT SKY AND/OR WEATHER CONDITIONS ARE NOT AVAILABLE FOR
       CHILLICOTHE AND FARMINGTON.

MOZ001>031-035>038-043-044-053-054-170200-
...NORTHERN AND WESTERN MISSOURI...
  
CITY           SKY/WX    TMP DP  RH WIND       PRES   REMARKS
KANSAS CTY INT CLOUDY    24  13  62 E17       29.76F WCI  11          
KANSAS C DTWN  CLOUDY    26  14  60 E9        29.78S WCI  17          
LEE'S SUMMIT   CLOUDY    23  16  74 E12       29.77F WCI  12          
ST JOSEPH      CLOUDY    26  15  63 E12       29.78F WCI  16          
CHILLICOTHE      N/A     30  20  66 E10G18    29.83F WCI  21          
KIRKSVILLE     CLOUDY    29  21  72 E12       29.84F WCI  19          
     
$$
MOZ066>068-077>081-088>096-101>105-170200-
...SOUTHWEST MISSOURI...
  
CITY           SKY/WX    TMP DP  RH WIND       PRES   REMARKS
SPRINGFIELD    CLOUDY    31  27  85 SE14      29.69F WCI  21          
JOPLIN         CLOUDY    31  29  92 NE3       29.70F                  
BRANSON        CLOUDY    32  32 100 E10       29.73F WCI  24          
               
$$
MOZ032>034-039>042-045>050-055>058-069>072-170200-
...CENTRAL MISSOURI...  
  
CITY           SKY/WX    TMP DP  RH WIND       PRES   REMARKS
COLUMBIA       CLOUDY    28  16  60 E3        29.84R                  
JEFFERSON CITY CLOUDY    30  15  53 E12       29.85R WCI  20          
ROLLA          MOCLDY    27  15  61 E10       29.82R WCI  17          
SEDALIA        CLOUDY    27  18  69 E8        29.79F WCI  19          
WARRENSBURG    MIX PCPN  28  18  64 E12       29.78F WCI  18          
OSAGE BEACH    CLOUDY    30  19  63 E10       29.80F WCI  21          
               
$$
MOZ051-052-059>065-170200-
...EAST CENTRAL MISSOURI...
  
CITY           SKY/WX    TMP DP  RH WIND       PRES   REMARKS
ST LOUIS INTL  PTCLDY    31  21  66 E8        29.88F WCI  23          
SPIRIT OF STL  CLEAR     28  20  71 CALM      29.88R                  
ST CHARLES     CLEAR     32  24  72 E9        29.89F WCI  24          
                   
$$
MOZ072>076-082>087-097>100-106>115-170200-
...SOUTH CENTRAL AND SOUTHEAST MISSOURI...
  
CITY           SKY/WX    TMP DP  RH WIND       PRES   REMARKS
CAPE GIRARDEAU FAIR      30  25  81 E6        29.89F WCI  24          
FARMINGTON     CLOUDY    21  17  84 E5        29.86F WCI  15          
POPLAR BLUFF   CLOUDY    32  29  88 SE6       29.92R WCI  26          
WEST PLAINS    MIX PCPN  29  28  96 E14G21    29.79F FOG     WCI  18  
                                       
$$